Weather History for Atka, AK

Change the Weather History Date:

Wednesday, September 25, 2013

  Actual Average (PADK) Record (PADK)
Temperature  
Mean Temperature 50 °F -  
Max Temperature 53 °F 51 °F 57 °F (1959)
Min Temperature 46 °F 41 °F 33 °F (2006)
Degree Days  
Heating Degree Days 16    
Moisture  
Dew Point 42 °F    
Average Humidity 79    
Maximum Humidity 88    
Minimum Humidity 54    
Precipitation  
Precipitation 0.00 in - - ()
Sea Level Pressure  
Sea Level Pressure 29.94 in    
Wind  
Wind Speed 23 mph (West)    
Max Wind Speed 37 mph    
Max Gust Speed 46 mph    
Visibility 9 miles    
Events      
Averages and records for this station are not official NWS values.
T = Trace of Precipitation, MM = Missing Value Source: NWS Daily Summary

Daily Weather History Graph

Daily Weather History Graph

Search for Another Location

Airport:

Trip Planner

Search our weather history database for the weather conditions in past years. The results will help you decide how hot, cold, wet, or windy it might be!

Date:

Astronomy

Sep. 25, 2013 Rise Set
Actual Time 8:28 AM HADT 8:26 PM HADT
Civil Twilight 7:54 AM HADT 9:00 PM HADT
Nautical Twilight 7:15 AM HADT 9:40 PM HADT
Astronomical Twilight 6:33 AM HADT 10:21 PM HADT
Moon No Moon Rise 3:25 PM HADT (9/25)
Length of Visible Light 13h 05m
Length of Day
11h 58m
Waning Gibbous, 62% of the Moon is Illuminated
Sep 25
Waning Gibbous
Sep 26
Last Quarter
Oct 4
New
Oct 11
First Quarter
Oct 18
Full

Hourly Weather History & Observations

Time (HADT) Temp. Windchill Dew Point Humidity Pressure Visibility Wind Dir Wind Speed Gust Speed Precip Events Conditions
12:16 AM 48.2 °F - 42.8 °F 82% 29.59 in 10.0 mi WNW 31.1 mph 44.9 mph N/A   Overcast
12:36 AM 48.2 °F - 42.8 °F 82% 29.61 in 10.0 mi WNW 32.2 mph 46.0 mph N/A   Overcast
12:56 AM - - - N/A% 29.63 in 10.0 mi WNW 29.9 mph 41.4 mph N/A   Overcast
1:16 AM 48.2 °F - 41.0 °F 76% 29.65 in 10.0 mi West 29.9 mph 40.3 mph N/A   Overcast
1:36 AM 48.2 °F - 39.2 °F 71% 29.67 in 10.0 mi WNW 35.7 mph 46.0 mph N/A   Overcast
1:56 AM - - - N/A% 29.68 in 10.0 mi WNW 36.8 mph 42.6 mph N/A   Overcast
2:16 AM - - - N/A% 29.69 in 10.0 mi WNW 31.1 mph 42.6 mph N/A   Overcast
2:36 AM 46.4 °F 37.4 °F 42.8 °F 87% 29.72 in 7.0 mi West 28.8 mph 41.4 mph N/A   Mostly Cloudy
2:56 AM - - - N/A% 29.72 in 7.0 mi WNW 34.5 mph 41.4 mph N/A   Overcast
3:16 AM 46.4 °F 36.9 °F 42.8 °F 87% 29.75 in 10.0 mi West 32.2 mph 41.4 mph N/A   Overcast
3:36 AM 46.4 °F 37.2 °F 41.0 °F 81% 29.77 in 3.0 mi WNW 29.9 mph 41.4 mph N/A   Overcast
3:56 AM 46.4 °F 37.2 °F 41.0 °F 81% 29.79 in 10.0 mi West 29.9 mph 41.4 mph N/A   Overcast
4:16 AM 46.4 °F 37.7 °F 42.8 °F 87% 29.81 in 2.5 mi WNW 26.5 mph 33.4 mph N/A   Overcast
4:36 AM 46.4 °F 37.7 °F 42.8 °F 87% 29.82 in 3.0 mi WNW 26.5 mph 39.1 mph N/A   Overcast
4:56 AM 46.4 °F 38.5 °F 42.8 °F 87% 29.83 in 4.0 mi West 21.9 mph 35.7 mph N/A   Overcast
5:16 AM 46.4 °F 37.7 °F 41.0 °F 81% 29.84 in 9.0 mi WNW 26.5 mph 32.2 mph N/A   Overcast
5:36 AM 46.4 °F 38.1 °F 42.8 °F 87% 29.86 in 7.0 mi West 24.2 mph 31.1 mph N/A   Mostly Cloudy
5:56 AM 46.4 °F 38.7 °F 42.8 °F 87% 29.88 in 6.0 mi WNW 20.7 mph 27.6 mph N/A   Overcast
6:16 AM 46.4 °F 39.0 °F 41.0 °F 81% 29.89 in 9.0 mi West 19.6 mph 27.6 mph N/A   Overcast
6:36 AM 46.4 °F 38.1 °F 41.0 °F 81% 29.90 in 2.5 mi WNW 24.2 mph 29.9 mph N/A   Overcast
6:56 AM 46.4 °F 39.5 °F 41.0 °F 81% 29.92 in 5.0 mi WNW 17.3 mph 28.8 mph N/A   Overcast
7:16 AM 46.4 °F 40.1 °F 39.2 °F 76% 29.94 in 9.0 mi WNW 15.0 mph 25.3 mph N/A   Overcast
7:36 AM 46.4 °F 39.5 °F 39.2 °F 76% 29.95 in 7.0 mi WNW 17.3 mph 25.3 mph N/A   Overcast
7:56 AM 46.4 °F 39.2 °F 39.2 °F 76% 29.96 in 7.0 mi WNW 18.4 mph 25.3 mph N/A   Overcast
8:16 AM 46.4 °F 38.5 °F 41.0 °F 81% 29.97 in 9.0 mi West 21.9 mph 27.6 mph N/A   Overcast
8:36 AM 46.4 °F 38.5 °F 39.2 °F 76% 29.98 in 9.0 mi WNW 21.9 mph 29.9 mph N/A   Overcast
8:56 AM 46.4 °F 37.7 °F 39.2 °F 76% 29.98 in 10.0 mi WNW 26.5 mph 33.4 mph N/A   Overcast
9:16 AM 46.4 °F 37.9 °F 39.2 °F 76% 29.98 in 10.0 mi WNW 25.3 mph 32.2 mph N/A   Overcast
9:36 AM - - - N/A% 29.98 in - WNW 29.9 mph 38.0 mph N/A   Unknown
9:56 AM 48.2 °F - 39.2 °F 71% 29.99 in 10.0 mi WNW 28.8 mph 38.0 mph N/A   Overcast
10:16 AM 46.4 °F 37.4 °F 39.2 °F 76% 30.01 in 8.0 mi WNW 28.8 mph 38.0 mph N/A   Overcast
10:36 AM 46.4 °F 38.1 °F 39.2 °F 76% 30.03 in 10.0 mi West 24.2 mph 32.2 mph N/A   Overcast
10:56 AM 48.2 °F - 39.2 °F 71% 30.04 in 10.0 mi WNW 23.0 mph 28.8 mph N/A   Overcast
11:16 AM 48.2 °F - 39.2 °F 71% 30.05 in 10.0 mi WNW 24.2 mph 31.1 mph N/A   Scattered Clouds
11:36 AM 48.2 °F - 39.2 °F 71% 30.06 in 10.0 mi West 20.7 mph 27.6 mph N/A   Clear
11:56 AM 48.2 °F - 39.2 °F 71% 30.07 in 10.0 mi WNW 17.3 mph 26.5 mph N/A   Clear
12:16 PM 50.0 °F - 41.0 °F 71% 30.07 in 10.0 mi WNW 17.3 mph 21.9 mph N/A   Clear
12:36 PM 50.0 °F - 41.0 °F 71% 30.08 in 10.0 mi West 16.1 mph 21.9 mph N/A   Clear
12:56 PM 50.0 °F - 39.2 °F 66% 30.08 in 10.0 mi West 11.5 mph - N/A   Scattered Clouds
1:16 PM 50.0 °F - 39.2 °F 66% 30.07 in 10.0 mi WNW 9.2 mph - N/A   Scattered Clouds
1:36 PM 51.8 °F - 39.2 °F 62% 30.07 in 10.0 mi NW 5.8 mph - N/A   Partly Cloudy
1:56 PM 51.8 °F - 39.2 °F 62% 30.06 in 10.0 mi NNW 5.8 mph - N/A   Clear
2:16 PM 53.6 °F - 39.2 °F 58% 30.07 in 10.0 mi SSW 9.2 mph - N/A   Partly Cloudy
2:36 PM 53.6 °F - 37.4 °F 54% 30.07 in 10.0 mi SSW 16.1 mph - N/A   Clear
2:56 PM 51.8 °F - 39.2 °F 62% 30.06 in 10.0 mi SSW 10.4 mph - N/A   Mostly Cloudy
3:16 PM 51.8 °F - 39.2 °F 62% 30.06 in 10.0 mi SSW 15.0 mph 19.6 mph N/A   Overcast
3:36 PM 51.8 °F - 42.8 °F 71% 30.06 in 10.0 mi SSW 12.7 mph - N/A   Overcast
3:56 PM 48.2 °F - 42.8 °F 82% 30.06 in 10.0 mi SSW 8.1 mph - N/A   Overcast
4:16 PM 48.2 °F - 44.6 °F 87% 30.05 in 8.0 mi SSW 9.2 mph - N/A   Overcast
4:36 PM 48.2 °F - 44.6 °F 87% 30.05 in 10.0 mi SSW 11.5 mph - N/A   Overcast
4:56 PM 48.2 °F - 44.6 °F 87% 30.05 in 5.0 mi SW 4.6 mph - N/A   Overcast
5:16 PM 48.2 °F - 44.6 °F 87% 30.04 in 8.0 mi SW 3.5 mph - N/A   Overcast
5:36 PM 50.0 °F - 44.6 °F 82% 30.03 in 10.0 mi South 4.6 mph - N/A   Overcast
5:56 PM 48.2 °F - 44.6 °F 87% 30.02 in 10.0 mi SSW 6.9 mph - N/A   Overcast
6:16 PM 48.2 °F - 44.6 °F 87% 30.02 in 10.0 mi SSW 12.7 mph - N/A   Overcast
6:36 PM 48.2 °F - 44.6 °F 87% 30.01 in 10.0 mi SW 11.5 mph - N/A   Overcast
6:56 PM 50.0 °F - 46.4 °F 87% 30.01 in 10.0 mi SW 17.3 mph 20.7 mph N/A   Overcast
7:16 PM 51.8 °F - 46.4 °F 82% 30.01 in 10.0 mi SW 19.6 mph 23.0 mph N/A   Overcast
7:36 PM 50.0 °F - 46.4 °F 87% 30.00 in 10.0 mi SW 19.6 mph 23.0 mph N/A   Overcast
7:56 PM 50.0 °F - 46.4 °F 87% 29.99 in 10.0 mi SW 19.6 mph - N/A   Overcast
8:16 PM 51.8 °F - 46.4 °F 82% 29.99 in 10.0 mi SW 15.0 mph 19.6 mph N/A   Overcast
8:36 PM 51.8 °F - 46.4 °F 82% 29.98 in 10.0 mi SW 16.1 mph - N/A   Overcast
8:56 PM 50.0 °F - 46.4 °F 87% 29.97 in 10.0 mi SSW 19.6 mph 25.3 mph N/A   Overcast
9:16 PM 50.0 °F - 46.4 °F 87% 29.95 in 10.0 mi SSW 16.1 mph - N/A   Overcast
9:36 PM 50.0 °F - 46.4 °F 87% 29.96 in 10.0 mi SW 17.3 mph 25.3 mph N/A   Overcast
9:56 PM 50.0 °F - 46.4 °F 87% 29.94 in 10.0 mi SSW 17.3 mph - N/A   Overcast
10:16 PM 50.0 °F - 46.4 °F 87% 29.94 in 10.0 mi SSW 15.0 mph 23.0 mph N/A   Overcast
10:36 PM 50.0 °F - 46.4 °F 87% 29.93 in 10.0 mi SSW 21.9 mph 28.8 mph N/A   Overcast
10:56 PM 51.8 °F - 46.4 °F 82% 29.95 in 10.0 mi SSW 18.4 mph 31.1 mph N/A   Overcast
11:16 PM 51.8 °F - 48.2 °F 88% 29.95 in 10.0 mi SW 16.1 mph - N/A   Overcast
11:36 PM 51.8 °F - 48.2 °F 88% 29.94 in 10.0 mi NW 8.1 mph - N/A   Overcast
11:56 PM 51.8 °F - 48.2 °F 88% 29.94 in 10.0 mi SW 4.6 mph - N/A   Mostly Cloudy